Location: Ford County Road and Bridge Department
(37.7686°N, 99.9762°W)
Time: 17:04:06
(UTC+00:00)

Cosmos 2227 Rocket - Pass Details

Date: 18 January 2020
Orbit: 841 x 843 km, 71.0° (Epoch: 23 February)

Event Time Altitude Azimuth Distance (km) Brightness Sun altitude
Rises 00:36:55 0° 164° (SSE) 3,381 5.4 -10.0°
Reaches altitude 10° 00:39:52 10° 149° (SSE) 2,451 4.5 -10.6°
Maximum altitude 00:44:03 22° 101° (E) 1,770 3.4 -11.4°
Enters shadow 00:46:47 16° 65° (ENE) 2,093 3.6 -11.9°
